Regional Weather Roundup
Issued by NWS Kansas City/Pleasant Hill, MO

Home | Current Version | Previous Version | Text Only | Print | Product List | Glossary On
Versions: 1 2 3 4 5 6 7 8 9 10 11 12 13 14 15 16 17 18 19 20 21 22 23 24 25 26 27
000
ASUS43 KEAX 271710
RWREAX

WEATHER ROUNDUP FOR EASTERN KANSAS AND NORTHWEST MISSOURI
NATIONAL WEATHER SERVICE KANSAS CITY/PLEASANT HILL MO
1200 PM CDT THU JUL 27 2017

KSZ040-057-103>105-MOZ028-029-037-043-271800-
...KANSAS CITY METROPOLITAN AREA...

CITY           SKY/WX    TMP DP  RH WIND       PRES   REMARKS
K.C. INTL      CLOUDY    80  74  81 N8        29.98F
K.C. DOWNTOWN  CLOUDY   N/A N/A N/A NE7       29.96F
LEES SUMMIT    CLOUDY    79  76  90 N12       29.98S
OLATHE - IXD   CLOUDY    79  75  87 N12       29.99R
OLATHE - OJC   CLOUDY    79  75  87 N9        29.98R
LAWRENCE       CLOUDY    80  76  87 N9        29.98S

$$

MOZ001>008-011>017-020>025-030>033-038>040-044>046-053-054-271800-
...NORTHERN AND CENTRAL MISSOURI...

CITY           SKY/WX    TMP DP  RH WIND       PRES   REMARKS
ST. JOSEPH     PTSUNNY   80  75  84 N10       29.99F
MOSBY          CLOUDY    79  72  78 CALM      29.97F
WARRENSBURG    CLOUDY    77  72  83 S5        29.96S
WHITEMAN AFB   CLOUDY    77  77 100 W7        29.95F
CLINTON        CLOUDY    77  73  88 W6        29.97F
SEDALIA        CLOUDY    80  76  87 SW6       29.98S
WARSAW         NOT AVBL
CHILLICOTHE      N/A     83  74  74 VRB6      29.98F
KIRKSVILLE     CLOUDY    80  73  79 NE8       29.99S

$$

MOZ041-047>049-056>058-063>065-088>090-097-271800-
...EASTERN AND SOUTHERN MISSOURI...

CITY           SKY/WX    TMP DP  RH WIND       PRES   REMARKS
ST. LOUIS INTL CLOUDY    81  73  76 W10       29.96S
SPIRIT OF STL  CLOUDY    80  75  84 SW10      29.94F
COLUMBIA       CLOUDY    79  75  87 W7        29.97F
JEFFERSON CITY CLOUDY    79  76  90 W6        29.95F
ROLLA          CLOUDY    75  73  93 SW9       30.00F
OSAGE BEACH    CLOUDY    77  73  87 SW8       29.98F
SPRINGFIELD    CLOUDY    75  73  93 SW9       30.00F
BRANSON        LGT RAIN  73  73 100 SW3       30.05F FOG
JOPLIN         CLOUDY    81  76  84 S10       30.00F
WEST PLAINS    LGT RAIN  77  74  90 VRB5      30.04R

$$

IAZ060-094-KSZ022-034>040-054-083-096-NEZ052-066-093-271800-
...KANSAS...SOUTHEAST NEBRASKA AND IOWA...

CITY           SKY/WX    TMP DP  RH WIND       PRES   REMARKS
TOPEKA         CLOUDY    79  75  87 NE6       29.99S
MANHATTAN      MOSUNNY   84  70  62 NE12      30.01F
EMPORIA        CLOUDY    81  73  76 NE7       29.98F
CHANUTE        CLOUDY    85  75  72 SW13      29.95F HX  93
WICHITA        PTSUNNY   87  74  64 E8        29.97F HX  95
OMAHA          MOSUNNY   82  63  52 N13       30.06F
LINCOLN        MOSUNNY   80  67  64 N9        30.08S
FALLS CITY     PTSUNNY   81  71  71 N8        30.01F
LAMONI         PTSUNNY   82  71  69 N8        30.01F
DES MOINES     PTSUNNY   83  67  58 NE12      30.01S

$$





USA.gov is the U.S. government's official web portal to all federal, state and local government web resources and services.